Previsão horária em Ploscha

Hoje, 5 Março, Sexta-feira

Tempo Temperatura Precipitação Vento Pressão Humidade
00:00 -6°C° 0 mm 3 m/s 738 mmHg 89%
01:00 -7°C° 0 mm 3 m/s 739 mmHg 88%
02:00 -7°C° 0 mm 3 m/s 739 mmHg 93%
03:00 -7°C° 0 mm 2 m/s 739 mmHg 94%
04:00 -7°C° 0 mm 2 m/s 739 mmHg 95%
05:00 -8°C° 0 mm 2 m/s 739 mmHg 95%
06:00 -7°C° 0 mm 2 m/s 739 mmHg 93%
07:00 -7°C° 0 mm 2 m/s 740 mmHg 91%
08:00 -6°C° 0 mm 1 m/s 740 mmHg 89%
09:00 -4°C° 0.1 mm 1 m/s 740 mmHg 86%
10:00 -3°C° 0.1 mm 1 m/s 740 mmHg 83%
11:00 -2°C° 0.1 mm 1 m/s 741 mmHg 80%
12:00 -1°C° 0.5 mm 1 m/s 741 mmHg 78%
13:00 -3°C° 0.5 mm 2 m/s 741 mmHg 75%
14:00 -3°C° 0.5 mm 2 m/s 741 mmHg 72%
15:00 -3°C° 0.3 mm 2 m/s 742 mmHg 73%
16:00 -4°C° 0.3 mm 2 m/s 742 mmHg 74%
17:00 -5°C° 0.3 mm 3 m/s 743 mmHg 75%
18:00 -5°C° 0 mm 2 m/s 743 mmHg 77%
19:00 -6°C° 0 mm 2 m/s 744 mmHg 79%
20:00 -7°C° 0 mm 2 m/s 744 mmHg 80%
21:00 -7°C° 0 mm 2 m/s 745 mmHg 83%
22:00 -8°C° 0 mm 2 m/s 745 mmHg 86%
23:00 -7°C° 0 mm 1 m/s 745 mmHg 88%

Amanhã, 6 Março, Sábado

Tempo Temperatura Precipitação Vento Pressão Humidade
00:00 -8°C° 0 mm 1 m/s 746 mmHg 89%
01:00 -8°C° 0 mm 1 m/s 746 mmHg 90%
02:00 -8°C° 0 mm 1 m/s 746 mmHg 91%
03:00 -8°C° 0 mm 1 m/s 746 mmHg 91%
04:00 -10°C° 0 mm 2 m/s 746 mmHg 91%
05:00 -10°C° 0 mm 2 m/s 746 mmHg 92%
06:00 -9°C° 0 mm 2 m/s 747 mmHg 90%
07:00 -9°C° 0 mm 2 m/s 747 mmHg 88%
08:00 -9°C° 0 mm 2 m/s 747 mmHg 86%
09:00 -8°C° 0 mm 2 m/s 747 mmHg 81%
10:00 -7°C° 0 mm 3 m/s 747 mmHg 76%
11:00 -6°C° 0 mm 3 m/s 747 mmHg 72%
12:00 -6°C° 0 mm 3 m/s 747 mmHg 68%
13:00 -5°C° 0 mm 3 m/s 747 mmHg 65%
14:00 -5°C° 0 mm 3 m/s 746 mmHg 62%
15:00 -5°C° 0 mm 3 m/s 746 mmHg 64%
16:00 -6°C° 0 mm 3 m/s 745 mmHg 67%
17:00 -5°C° 0 mm 2 m/s 745 mmHg 70%
18:00 -6°C° 0 mm 3 m/s 744 mmHg 68%
19:00 -7°C° 0 mm 4 m/s 743 mmHg 67%
20:00 -7°C° 0 mm 4 m/s 743 mmHg 66%
21:00 -7°C° 0 mm 5 m/s 742 mmHg 67%
22:00 -6°C° 0 mm 5 m/s 741 mmHg 68%
23:00 -6°C° 0 mm 6 m/s 740 mmHg 70%

Depois de amanhã, 7 Março, Domingo

Tempo Temperatura Precipitação Vento Pressão Humidade
00:00 -6°C° 0 mm 6 m/s 739 mmHg 71%
01:00 -6°C° 0 mm 6 m/s 737 mmHg 73%
02:00 -7°C° 0 mm 7 m/s 736 mmHg 74%
03:00 -7°C° 0.5 mm 7 m/s 734 mmHg 80%
04:00 -7°C° 0.5 mm 7 m/s 733 mmHg 86%
05:00 -7°C° 0.5 mm 7 m/s 732 mmHg 91%
06:00 -7°C° 0.8 mm 7 m/s 731 mmHg 88%
07:00 -7°C° 0.8 mm 7 m/s 731 mmHg 84%
08:00 -7°C° 0.8 mm 7 m/s 730 mmHg 81%
09:00 -7°C° 0.1 mm 7 m/s 731 mmHg 70%
10:00 -8°C° 0.1 mm 7 m/s 731 mmHg 60%
11:00 -8°C° 0.1 mm 8 m/s 732 mmHg 50%
12:00 -8°C° 0 mm 8 m/s 732 mmHg 53%
13:00 -7°C° 0 mm 7 m/s 732 mmHg 57%
14:00 -7°C° 0 mm 7 m/s 733 mmHg 60%
15:00 -7°C° 0.1 mm 7 m/s 732 mmHg 62%
16:00 -6°C° 0.1 mm 6 m/s 731 mmHg 64%
17:00 -6°C° 0.1 mm 6 m/s 730 mmHg 66%
18:00 -6°C° 0.3 mm 6 m/s 730 mmHg 70%
19:00 -8°C° 0.3 mm 7 m/s 730 mmHg 75%
20:00 -8°C° 0.3 mm 7 m/s 730 mmHg 79%
21:00 -9°C° 0.5 mm 6 m/s 730 mmHg 77%
22:00 -10°C° 0.5 mm 6 m/s 731 mmHg 75%
23:00 -11°C° 0.5 mm 5 m/s 731 mmHg 73%

8 Março, Segunda-feira

Tempo Temperatura Precipitação Vento Pressão Humidade
00:00 -12°C° 0.1 mm 5 m/s 732 mmHg 76%
01:00 -12°C° 0.1 mm 5 m/s 733 mmHg 78%
02:00 -12°C° 0.1 mm 4 m/s 734 mmHg 80%
03:00 -12°C° 0 mm 4 m/s 734 mmHg 82%
04:00 -14°C° 0 mm 4 m/s 735 mmHg 85%
05:00 -14°C° 0 mm 4 m/s 735 mmHg 87%
06:00 -14°C° 0 mm 4 m/s 736 mmHg 87%
07:00 -14°C° 0 mm 4 m/s 737 mmHg 87%
08:00 -13°C° 0 mm 3 m/s 737 mmHg 87%
09:00 -12°C° 0 mm 4 m/s 738 mmHg 83%
10:00 -11°C° 0 mm 4 m/s 738 mmHg 79%
11:00 -10°C° 0 mm 4 m/s 738 mmHg 74%
12:00 -9°C° 0 mm 4 m/s 739 mmHg 74%
13:00 -9°C° 0 mm 4 m/s 739 mmHg 74%
14:00 -9°C° 0 mm 4 m/s 740 mmHg 75%
15:00 -9°C° 0.1 mm 4 m/s 740 mmHg 77%
16:00 -10°C° 0.1 mm 4 m/s 740 mmHg 79%
17:00 -10°C° 0.1 mm 3 m/s 740 mmHg 81%
18:00 -12°C° 0 mm 3 m/s 741 mmHg 83%
19:00 -12°C° 0 mm 3 m/s 742 mmHg 86%
20:00 -13°C° 0 mm 3 m/s 742 mmHg 88%
21:00 -14°C° 0 mm 3 m/s 743 mmHg 89%
22:00 -14°C° 0 mm 3 m/s 743 mmHg 89%
23:00 -15°C° 0 mm 3 m/s 744 mmHg 90%

9 Março, Terça-feira

Tempo Temperatura Precipitação Vento Pressão Humidade
00:00 -16°C° 0 mm 3 m/s 744 mmHg 90%
01:00 -16°C° 0 mm 3 m/s 745 mmHg 91%
02:00 -17°C° 0 mm 3 m/s 745 mmHg 91%
03:00 -18°C° 0 mm 3 m/s 746 mmHg 92%
04:00 -17°C° 0 mm 2 m/s 746 mmHg 92%
05:00 -17°C° 0 mm 2 m/s 746 mmHg 93%
06:00 -17°C° 0 mm 2 m/s 747 mmHg 91%
07:00 -17°C° 0 mm 2 m/s 747 mmHg 90%
08:00 -17°C° 0 mm 2 m/s 748 mmHg 88%
09:00 -15°C° 0 mm 2 m/s 748 mmHg 84%
10:00 -14°C° 0 mm 2 m/s 748 mmHg 79%
11:00 -13°C° 0 mm 2 m/s 749 mmHg 75%
12:00 -12°C° 0 mm 2 m/s 749 mmHg 73%
13:00 -10°C° 0 mm 2 m/s 749 mmHg 71%
14:00 -9°C° 0 mm 2 m/s 749 mmHg 69%
15:00 -9°C° 0 mm 2 m/s 749 mmHg 71%
16:00 -9°C° 0 mm 2 m/s 748 mmHg 74%
17:00 -9°C° 0 mm 2 m/s 748 mmHg 76%
18:00 -9°C° 0 mm 2 m/s 748 mmHg 77%
19:00 -10°C° 0 mm 2 m/s 748 mmHg 77%
20:00 -12°C° 0 mm 3 m/s 748 mmHg 77%
21:00 -10°C° 0 mm 3 m/s 748 mmHg 75%
22:00 -11°C° 0 mm 4 m/s 747 mmHg 74%
23:00 -10°C° 0 mm 4 m/s 747 mmHg 72%

10 Março, Quarta-feira

Tempo Temperatura Precipitação Vento Pressão Humidade
00:00 -10°C° 0 mm 4 m/s 747 mmHg 74%
01:00 -10°C° 0 mm 4 m/s 746 mmHg 77%
02:00 -10°C° 0 mm 4 m/s 746 mmHg 79%
03:00 -10°C° 0.1 mm 4 m/s 746 mmHg 82%
04:00 -10°C° 0.1 mm 4 m/s 745 mmHg 86%
05:00 -10°C° 0.1 mm 4 m/s 745 mmHg 90%
06:00 -10°C° 0.4 mm 4 m/s 745 mmHg 88%
07:00 -10°C° 0.4 mm 4 m/s 745 mmHg 87%
08:00 -9°C° 0.4 mm 4 m/s 745 mmHg 86%
09:00 -9°C° 0.2 mm 4 m/s 745 mmHg 86%
10:00 -8°C° 0.2 mm 4 m/s 746 mmHg 86%
11:00 -7°C° 0.2 mm 4 m/s 746 mmHg 87%
12:00 -6°C° 0.2 mm 3 m/s 746 mmHg 87%
13:00 -5°C° 0.2 mm 3 m/s 746 mmHg 88%
14:00 -5°C° 0.2 mm 3 m/s 746 mmHg 88%
15:00 -4°C° 0.2 mm 2 m/s 745 mmHg 91%
16:00 -4°C° 0.2 mm 2 m/s 745 mmHg 93%
17:00 -4°C° 0.2 mm 2 m/s 745 mmHg 95%
18:00 -5°C° 0.3 mm 2 m/s 745 mmHg 95%
19:00 -6°C° 0.3 mm 2 m/s 745 mmHg 95%
20:00 -6°C° 0.3 mm 2 m/s 745 mmHg 95%
21:00 -7°C° 0.4 mm 2 m/s 745 mmHg 95%
22:00 -7°C° 0.4 mm 2 m/s 745 mmHg 95%
23:00 -7°C° 0.4 mm 2 m/s 745 mmHg 95%
Mostrar mais

Necessitamos do seu Consentimento

A Meteoprog e os seus Fornecedores de Serviços podem armazenar e aceder a dados pessoais como cookies, identificadores do dispositivo ou outras tecnologias semelhantes existentes no seu dispositivo e processar estes dados para personalizar conteúdos e anúncios, assim como funcionalidades nas redes sociais e análise de tráfego.

  • Armazenar e/ou aceder a informações no seu dispositivo

    Os cookies, identificadores do dispositivo ou outras informações podem ser armazenados ou acedidos no seu dispositivo, para os fins acima indicados.

  • Anúncios e conteúdos personalizados, medição de anúncios e conteúdos, dados sobre o público-alvo e desenvolvimento de produtos

    Os anúncios e os conteúdos podem ser personalizados com base num perfil. Podem ser adicionados dados adicionais para uma maior personalização dos anúncios e dos conteúdos. A eficácia dos anúncios e dos conteúdos pode ser medida. Podem ser obtidas informações sobre o público que visualizou os anúncios e os conteúdos. Estes dados podem ser usados para desenvolver ou melhorar sistemas, softwares ou a experiência do utilizador.

Ao clicar em "Eu concordo”, permitirá o uso de cookies, identificadores do dispositivo e web beacons mencionados ou outras tecnologias semelhantes. As configurações do navegador do seu dispositivo podem ser alteradas.

Para certos fins, podem ser invocados interesses legítimos ao invés de consentimento. Pode ler mais informação sobre este assunto na nossa Política de Privacidade e Cookies.